TimeMST,TemperatureF,Dew PointF,Humidity,Sea Level PressureIn,VisibilityMPH,Wind Direction,Wind SpeedMPH,Gust SpeedMPH,PrecipitationIn,Events,Conditions,WindDirDegrees,DateUTC
12:15 AM,23.7,15.8,72,30.01,10.0,East,8.1,-,N/A,,Overcast,80,2014-02-06 07:15:00
12:35 AM,23.5,15.6,72,30.01,10.0,WNW,5.8,-,N/A,,Overcast,290,2014-02-06 07:35:00
12:55 AM,24.4,15.4,69,30.00,10.0,NE,4.6,-,N/A,,Overcast,50,2014-02-06 07:55:00
1:15 AM,24.4,15.6,69,30.00,10.0,ENE,5.8,-,N/A,,Overcast,60,2014-02-06 08:15:00
1:35 AM,23.4,15.8,73,30.00,10.0,NNE,4.6,-,N/A,,Overcast,30,2014-02-06 08:35:00
1:55 AM,22.6,16.2,76,30.00,10.0,Calm,Calm,-,N/A,,Overcast,0,2014-02-06 08:55:00
2:15 AM,22.5,15.8,76,30.00,10.0,East,6.9,-,N/A,,Overcast,80,2014-02-06 09:15:00
2:35 AM,22.1,16.0,77,29.99,10.0,ESE,3.5,-,N/A,,Overcast,120,2014-02-06 09:35:00
2:55 AM,20.3,15.6,82,29.99,10.0,Calm,Calm,-,N/A,,Overcast,0,2014-02-06 09:55:00
3:15 AM,19.9,15.4,83,29.98,10.0,Calm,Calm,-,N/A,,Overcast,0,2014-02-06 10:15:00
3:35 AM,18.9,14.0,81,29.99,10.0,Calm,Calm,-,N/A,,Overcast,0,2014-02-06 10:35:00
3:55 AM,16.5,12.6,84,29.99,10.0,North,3.5,-,N/A,,Scattered Clouds,10,2014-02-06 10:55:00
4:15 AM,16.3,12.2,84,29.99,10.0,Calm,Calm,-,N/A,,Mostly Cloudy,0,2014-02-06 11:15:00
4:35 AM,16.3,12.9,86,29.99,10.0,Calm,Calm,-,N/A,,Overcast,0,2014-02-06 11:35:00
4:55 AM,17.8,13.6,84,29.99,10.0,Calm,Calm,-,N/A,,Overcast,0,2014-02-06 11:55:00
5:15 AM,17.1,13.6,86,29.98,10.0,Calm,Calm,-,N/A,,Overcast,0,2014-02-06 12:15:00
5:35 AM,17.6,14.0,86,29.98,10.0,Calm,Calm,-,N/A,,Overcast,0,2014-02-06 12:35:00
5:55 AM,17.6,14.0,86,29.99,10.0,Calm,Calm,-,N/A,,Overcast,0,2014-02-06 12:55:00
6:15 AM,18.0,14.5,86,29.98,10.0,Calm,Calm,-,N/A,,Overcast,0,2014-02-06 13:15:00
6:35 AM,18.3,14.7,86,29.99,10.0,Calm,Calm,-,N/A,,Overcast,0,2014-02-06 13:35:00
6:55 AM,17.6,14.5,88,29.99,10.0,Calm,Calm,-,N/A,,Overcast,0,2014-02-06 13:55:00
7:15 AM,18.1,14.9,87,30.00,10.0,Calm,Calm,-,N/A,,Overcast,0,2014-02-06 14:15:00
7:35 AM,18.5,14.9,86,30.00,10.0,Calm,Calm,-,N/A,,Overcast,0,2014-02-06 14:35:00
7:55 AM,19.6,14.7,81,30.00,10.0,Calm,Calm,-,N/A,,Overcast,0,2014-02-06 14:55:00
8:15 AM,20.3,15.3,81,30.00,10.0,SE,3.5,-,N/A,,Overcast,140,2014-02-06 15:15:00
8:35 AM,21.2,15.6,79,30.00,10.0,East,3.5,-,N/A,,Overcast,90,2014-02-06 15:35:00
8:55 AM,22.6,15.3,73,30.01,10.0,Calm,Calm,-,N/A,,Overcast,0,2014-02-06 15:55:00
9:15 AM,24.1,15.6,70,30.00,10.0,East,3.5,-,N/A,,Overcast,90,2014-02-06 16:15:00
9:35 AM,26.2,16.0,65,30.01,10.0,Calm,Calm,-,N/A,,Overcast,0,2014-02-06 16:35:00
9:55 AM,27.5,17.2,65,30.00,10.0,Calm,Calm,-,N/A,,Overcast,0,2014-02-06 16:55:00
10:15 AM,27.7,18.0,67,30.00,10.0,Calm,Calm,-,N/A,,Mostly Cloudy,0,2014-02-06 17:15:00
10:35 AM,29.5,18.7,64,30.00,10.0,Calm,Calm,-,N/A,,Mostly Cloudy,0,2014-02-06 17:35:00
10:55 AM,31.3,19.2,61,30.00,10.0,Calm,Calm,-,N/A,,Mostly Cloudy,0,2014-02-06 17:55:00
11:15 AM,32.9,19.2,57,29.99,10.0,East,4.6,-,N/A,,Scattered Clouds,80,2014-02-06 18:15:00
11:35 AM,32.9,20.1,59,29.98,10.0,NE,3.5,-,N/A,,Scattered Clouds,50,2014-02-06 18:35:00
11:55 AM,34.0,21.0,59,29.97,10.0,East,4.6,-,N/A,,Clear,80,2014-02-06 18:55:00
12:15 PM,35.8,21.4,56,29.96,10.0,Calm,Calm,-,N/A,,Clear,0,2014-02-06 19:15:00
12:35 PM,36.9,21.0,53,29.95,10.0,SE,3.5,-,N/A,,Clear,130,2014-02-06 19:35:00
12:55 PM,38.5,20.5,48,29.93,10.0,East,3.5,-,N/A,,Clear,100,2014-02-06 19:55:00
1:15 PM,38.5,18.9,45,29.92,10.0,East,4.6,-,N/A,,Clear,100,2014-02-06 20:15:00
1:35 PM,39.2,16.5,40,29.91,10.0,East,3.5,-,N/A,,Clear,90,2014-02-06 20:35:00
1:55 PM,39.2,16.0,39,29.90,10.0,Calm,Calm,-,N/A,,Clear,0,2014-02-06 20:55:00
2:15 PM,39.7,16.3,39,29.90,10.0,Calm,Calm,-,N/A,,Mostly Cloudy,0,2014-02-06 21:15:00
2:35 PM,39.2,16.0,39,29.90,10.0,Calm,Calm,-,N/A,,Overcast,0,2014-02-06 21:35:00
2:55 PM,39.2,16.3,40,29.89,10.0,Calm,Calm,-,N/A,,Overcast,0,2014-02-06 21:55:00
3:15 PM,38.7,17.6,43,29.89,10.0,Calm,Calm,-,N/A,,Overcast,0,2014-02-06 22:15:00
3:35 PM,38.5,20.8,49,29.89,10.0,Calm,Calm,-,N/A,,Overcast,0,2014-02-06 22:35:00
3:55 PM,37.4,22.5,55,29.89,10.0,Calm,Calm,-,N/A,,Overcast,0,2014-02-06 22:55:00
4:15 PM,36.9,23.2,58,29.89,10.0,SW,4.6,-,N/A,,Overcast,230,2014-02-06 23:15:00
4:35 PM,36.5,24.1,61,29.89,10.0,WSW,4.6,-,N/A,,Overcast,240,2014-02-06 23:35:00
4:55 PM,35.8,24.3,63,29.89,10.0,SW,3.5,-,N/A,,Overcast,220,2014-02-06 23:55:00
5:15 PM,34.7,24.8,67,29.89,10.0,SSW,4.6,-,N/A,,Overcast,210,2014-02-07 00:15:00
5:35 PM,33.3,26.1,75,29.89,10.0,Calm,Calm,-,N/A,,Overcast,0,2014-02-07 00:35:00
5:55 PM,33.1,26.1,75,29.89,10.0,SSE,3.5,-,N/A,,Overcast,160,2014-02-07 00:55:00
6:15 PM,32.4,26.1,78,29.89,10.0,Calm,Calm,-,N/A,,Overcast,0,2014-02-07 01:15:00
6:35 PM,32.4,25.7,76,29.90,10.0,Calm,Calm,-,N/A,,Overcast,0,2014-02-07 01:35:00
6:55 PM,32.0,24.8,75,29.90,10.0,Calm,Calm,-,N/A,,Overcast,0,2014-02-07 01:55:00
7:15 PM,31.8,25.0,76,29.90,10.0,Calm,Calm,-,N/A,,Overcast,0,2014-02-07 02:15:00
7:35 PM,31.6,25.7,79,29.90,10.0,Calm,Calm,-,N/A,,Overcast,0,2014-02-07 02:35:00
7:55 PM,31.8,26.4,80,29.90,10.0,Calm,Calm,-,N/A,,Overcast,0,2014-02-07 02:55:00
8:15 PM,32.0,25.9,78,29.90,10.0,Calm,Calm,-,N/A,,Overcast,0,2014-02-07 03:15:00
8:35 PM,32.9,27.0,79,29.90,10.0,ENE,5.8,-,N/A,,Overcast,60,2014-02-07 03:35:00
8:55 PM,33.1,28.2,82,29.90,10.0,ENE,4.6,-,N/A,,Overcast,60,2014-02-07 03:55:00
9:15 PM,33.1,28.8,84,29.91,10.0,ENE,6.9,-,N/A,,Overcast,70,2014-02-07 04:15:00
9:35 PM,33.8,29.1,83,29.91,10.0,NNE,9.2,-,N/A,Snow,Light Snow,30,2014-02-07 04:35:00
9:55 PM,32.9,30.0,89,29.90,2.0,NNE,11.5,-,N/A,Snow,Light Snow,20,2014-02-07 04:55:00
10:15 PM,32.5,30.2,91,29.90,7.0,NNE,9.2,-,N/A,Snow,Light Snow,30,2014-02-07 05:15:00
10:35 PM,32.5,30.0,90,29.90,10.0,NNE,8.1,-,N/A,,Overcast,30,2014-02-07 05:35:00
10:55 PM,32.2,29.7,90,29.89,10.0,NNE,8.1,-,N/A,,Overcast,30,2014-02-07 05:55:00
11:15 PM,32.4,29.3,88,29.89,10.0,NNE,9.2,-,N/A,,Overcast,30,2014-02-07 06:15:00
11:35 PM,32.5,29.3,88,29.89,10.0,NE,6.9,-,N/A,,Overcast,40,2014-02-07 06:35:00
11:55 PM,32.9,28.9,85,29.88,10.0,NE,6.9,-,N/A,,Overcast,40,2014-02-07 06:55:00